Preview of NWS' New Version of Forecast
This preview is not operational and should not be used for support decisions.
Latest weather observations around

St. Louis Downtown Airport (KCPS)

Using English Units (Switch to International System of Units)
Date/ Time (CDT) Wind (mph) Vis. (mi) Weather Sky Cond. Temp (°F) Rel. Humidity Wind Chill (°F) Heat Index (°F) Pressure Precip. (in)
Air Dwpt 6 hour Altimeter (inHg) Sea level (inHg) 1 hr 3 hr 6 hr
Max Min
Jun 19 04:53 Calm 7 Clear CLR 71 68     90%   72 29.74 29.72      
Jun 19 03:53 Calm 6 Fog/Mist CLR 70 69     97%     29.76 29.75      
Jun 19 02:53 Calm 8 Mostly Cloudy BKN065 72 69     91%   73 29.78 29.76      
Jun 19 01:53 Calm 10 Mostly Cloudy SCT060 BKN080 72 69     91%   73 29.8 29.78      
Jun 19 00:53 Calm 10 Cloudy BKN070 OVC095 72 69     91%   73 29.82 29.81      
Jun 18 23:53 Calm 10 Cloudy FEW033 OVC065 73 69     87%   74 29.83 29.82      
Jun 18 22:53 Calm 10 Mostly Clear FEW065 72 68     87%   73 29.84 29.83      
Jun 18 21:53 Calm 10 Clear CLR 76 68     76%   77 29.84 29.82      
Jun 18 20:53 NNE 6 10 Mostly Clear FEW100 76 67     74%   77 29.83 29.82      
Jun 18 19:53 NNE 5 10 Clear CLR 80 68     67%   83 29.82 29.8      
Jun 18 18:53 NE 6 10 Clear CLR 82 67     60%   85 29.81 29.8      
Jun 18 17:53 N 9 10 Clear CLR 83 67     59%   86 29.82 29.81      
Jun 18 16:53 WNW 5 10 Partly Cloudy SCT034 83 66     57%   85 29.83 29.82      
Jun 18 15:53 N 6 10 Mostly Clear FEW034 84 68     59%   87 29.85 29.83      
Jun 18 14:53 Calm 10 Cloudy SCT037 BKN046 OVC080 82 66     58%   84 29.88 29.86      
Jun 18 13:53 5 10 Partly Cloudy FEW030 SCT042 82 68     63%   85 29.89 29.88      
Jun 18 12:53 NNE 3 10 Cloudy BKN037 OVC046 82 67     60%   85 29.91 29.89      
Jun 18 11:53 5 10 Mostly Cloudy BKN022 81 67     62%   83 29.92 29.91      
Jun 18 11:00 N 3 10 Mostly Cloudy BKN022 78 67     69%   79 29.93        
Jun 18 10:53 5 10 Mostly Cloudy BKN014 78 68     71%   79 29.93 29.92      
Jun 18 09:53 NNE 5 10 Mostly Cloudy BKN014 75 67     76%   76 29.93 29.91      
Jun 18 09:46 E 5 10 Cloudy OVC010 76 68     76%   77 29.92        
Jun 18 08:53 NNE 5 6 Haze OVC010 74 67     79%   75 29.93 29.91      
Jun 18 08:43 Calm 7 Cloudy OVC010 73 68     84%   74 29.93        
Jun 18 07:53 NW 5 6 Haze OVC007 72 67     84%   73 29.92 29.91      
Jun 18 06:53 NE 6 4 Fog/Mist OVC007 70 67     90%     29.91 29.9      
Jun 18 05:53 NNE 5 4 Fog/Mist OVC008 70 68     93%     29.92 29.91      
Jun 18 04:53 NNE 6 5 Fog/Mist OVC008 70 68     93%     29.92 29.91      
Jun 18 04:27 NE 6 5 Fog/Mist OVC009 70 67     90%     29.92        
Jun 18 04:17 NE 6 5 Fog/Mist OVC010 70 68     93%     29.92        
Jun 18 03:53 N 8 5 Fog/Mist BKN009 OVC020 71 68     90%   72 29.92 29.91      
Jun 18 03:40 N 7 6 Fog/Mist FEW009 OVC020 71 68     90%   72 29.92        
Jun 18 03:25 NNE 9 7 Cloudy SCT010 OVC018 71 68     90%   72 29.92        
Jun 18 03:00 N 6 8 Cloudy OVC014 71 68     90%   72 29.93        
Jun 18 02:53 N 6 8 Cloudy OVC016 71 68     90%   72 29.93 29.91      
Jun 18 02:50 N 6 8 Cloudy OVC016 72 68     88%   73 29.93        
Jun 18 02:21 N 6 8 Cloudy OVC014 71 68     90%   72 29.93        
Jun 18 02:04 NNW 3 9 Cloudy FEW010 OVC015 71 68     90%   72 29.94        
Jun 18 01:53 N 3 10 Cloudy SCT010 BKN014 OVC042 71 68     90%   72 29.93 29.92      
Jun 18 01:31 NE 3 10 Cloudy BKN010 BKN041 OVC120 71 68     90%   72 29.94        
Jun 18 00:53 ENE 5 10 Partly Cloudy FEW038 SCT120 71 68     90%   72 29.93 29.93      
Jun 18 00:18 NNE 6 8 Mostly Cloudy FEW013 BKN110 71 69     93%   72 29.93        
Jun 17 23:53 ENE 3 7 Cloudy OVC011 72 69     91%   73 29.94 29.93      
Jun 17 23:45 ENE 3 7 Cloudy OVC009 72 69     91%   73 29.94        
Jun 17 23:15 NE 5 8 Cloudy OVC010 72 69     91%   73 29.94        
Jun 17 22:53 N 5 9 Cloudy OVC009 72 69     91%   73 29.94 29.93      
Jun 17 22:30 N 3 10 Cloudy BKN009 OVC110 72 69     91%   73 29.94        
Jun 17 22:22 N 3 10 Cloudy SCT009 OVC110 72 69     91%   73 29.94        
Jun 17 21:53 NNE 3 10 Mostly Cloudy BKN110 72 69     91%   73 29.93 29.92      
Jun 17 20:53 NE 6 10 Clear CLR 73 68     84%   74 29.92 29.91      
Jun 17 19:53 NE 6 10 Cloudy SCT016 OVC110 74 69     85%   75 29.91 29.91      
Jun 17 18:53 NNE 5 10 Mostly Cloudy SCT015 BKN110 75 69     82%   76 29.92 29.91     0
Jun 17 17:53 NE 5 10 Partly Cloudy SCT120 76 69     79%   77 29.91 29.9      
Jun 17 16:53 E 3 10 Mostly Cloudy FEW070 BKN100 BKN120 76 68     76%   77 29.92 29.91 0    
Jun 17 15:53 ENE 8 10 Cloudy SCT012 SCT028 OVC038 79 70     74%   82 29.93 29.91   0  
Jun 17 15:21 E 7 10 Cloudy SCT012 SCT028 OVC038 76 70     82%   77 29.92        
Jun 17 15:00 ENE 8 10 Cloudy SCT013 BKN028 OVC039 75 69     82%   76 29.93        
Jun 17 14:53 ENE 9 10 Mostly Cloudy SCT008 BKN049 76 70     82%   77 29.93 29.92 0    
Jun 17 13:53 ENE 6 10 Mostly Cloudy SCT008 BKN049 BKN060 76 71     85%   77 29.94 29.93      
Jun 17 12:53 ESE 3 10 Mostly Cloudy BKN021 BKN110 73 68     84%   74 29.95 29.93 0   0
Jun 17 12:09 NE 6 7 Light Rain FEW010 BKN028 OVC065 71 67     87%   72 29.94   0    
Jun 17 12:02 Calm 10 Cloudy FEW010 BKN028 OVC065 71 68     90%   72 29.94   0    
Jun 17 11:53 E 3 8 Light Rain FEW014 BKN050 OVC065 71 69     93%   72 29.95 29.94 0    
Jun 17 11:48 Calm 5 Light Rain and Fog/Mist   72 70     94%   73 29.94   0    
Jun 17 11:28 ESE 6   Thunderstorms and Rain   71 70     96%   72 29.95   0    
Jun 17 11:07 S 5 0.75 Heavy Rain and Fog/Mist OVC008 72 69     91%   73 29.94   0    
Jun 17 11:01 S 5 1.75 Heavy Rain and Fog/Mist OVC008 72 69     91%   73 29.93   0    
Jun 17 10:53 SSW 5 5 Light Rain and Fog/Mist OVC008 72 69     91%   73 29.94 29.93 0    
Jun 17 09:53 S 6 7 Cloudy OVC008 73 69     87%   74 29.93 29.92      
Jun 17 08:53 SE 7 6 Fog/Mist OVC005 72 70     93%   73 29.92 29.91      
Jun 17 08:38 SE 3 5 Fog/Mist OVC004 71 69     93%   72 29.91        
Jun 17 08:20 ESE 5 1 Fog/Mist OVC003 71 69     93%   72 29.91        
Jun 17 08:12 ENE 5 3 Fog/Mist OVC003 71 69     93%   72 29.9        
Jun 17 07:53 ENE 3 0.5 Fog OVC002 70 69     97%     29.9 29.89      
Jun 17 06:53 Calm 0.25 Fog VV002 69 69     100%     29.89 29.88      
Jun 17 06:48 E 3 0.5 Fog VV002 70 70     100%     29.89        
Jun 17 05:53 Calm 0.25 Fog VV002 69 69     100%     29.88 29.86      
Jun 17 05:09 SE 5 0.25 Fog VV002 69 68     96%     29.87        
Jun 17 04:53 Calm 0.5 Fog VV002 69 68     96%     29.87 29.86      
Jun 17 04:35 SSE 3 1 Fog/Mist OVC002 69 69     100%     29.87        
Jun 17 04:24 SSE 6 1.75 Fog/Mist BKN003 69 68     96%     29.87        
Jun 17 04:13 SSE 5 7 Mostly Cloudy BKN003 69 67     93%     29.87        
Jun 17 03:53 Calm 7 Mostly Clear FEW005 69 68     96%     29.86 29.85      
Jun 17 03:51 Calm 7 Mostly Clear FEW005 70 66     88%     29.86        
Jun 17 02:53 SSE 3 9 Clear CLR 70 68     93%     29.86 29.85      
Jun 17 01:53 ESE 3 8 Clear CLR 70 67     90%     29.86 29.85      
Jun 17 00:53 Calm 10 Clear   70 68     93%     29.85 29.84     0
Jun 16 23:53 Calm 10 Mostly Clear FEW120 74 69     85%   75 29.86 29.85      
Jun 16 22:53 S 6 10 Mostly Cloudy BKN120 76 68     76%   77 29.88 29.86      
Jun 16 21:53 SE 3 10 Partly Cloudy SCT050 SCT060 75 67     76%   76 29.86 29.85 0 0  
Jun 16 20:53 Calm 10 Mostly Clear FEW065 FEW120 76 68     76%   77 29.84 29.82      
Jun 16 19:53 ENE 5 10 Clear CLR 81 66     61%   83 29.82 29.81      
Jun 16 18:53 NE 7 10 Partly Cloudy FEW050 SCT060 83 67     59%   86 29.8 29.78      
Jun 16 17:53 NNE 3 10 Mostly Cloudy BKN046 BKN060 85 67     55%   88 29.79 29.78      
Jun 16 16:53 NNW 5 10 Mostly Clear FEW065 85 68     57%   88 29.78 29.77      
Jun 16 15:53 NNW 9 10 Cloudy BKN050 OVC060 83 69     63%   87 29.82 29.81      
Jun 16 14:53 WSW 5 10 Cloudy OVC060 83 67     59%   86 29.83 29.82      
Jun 16 13:53 3 10 Clear CLR 83 68     61%   86 29.84 29.83      
Jun 16 12:53 Calm 10 Mostly Clear FEW029 83 68     61%   86 29.85 29.84      
Jun 16 11:53 SW 6 10 Partly Cloudy SCT025 81 68     65%   84 29.85 29.83      
Jun 16 11:26 Calm 10 Mostly Cloudy BKN025 79 68     69%   80 29.84        
Jun 16 10:53 Calm 10 Mostly Clear FEW022 80 68     67%   83 29.84 29.83      
Jun 16 09:53 SW 5 10 Cloudy SCT028 OVC150 77 68     74%   78 29.84 29.82      
Jun 16 08:53 W 8 10 Mostly Cloudy BKN027 BKN034 75 68     79%   76 29.84 29.82      
Jun 16 08:30 SSW 5 10 Cloudy BKN026 BKN033 OVC048 75 69     82%   76 29.84        
Jun 16 07:53 SW 6 10 Cloudy OVC033 75 70     84%   76 29.85 29.83      
Jun 16 07:29 SSW 5 10 Cloudy BKN029 OVC039 75 70     84%   76 29.84        
Jun 16 06:53 Calm 10 Clear CLR 73 70     90%   74 29.82 29.8     0
Jun 16 05:53 Calm 10 Cloudy OVC034 73 69     87%   74 29.81 29.79      
May 15 06:53 NW 11 10 Clear CLR 70 61     73%     29.92 29.91     0
May 15 03:53 W 9 10 Clear   71 60     68%   71 29.88 29.86   0  
May 14 19:44   10 Light Rain FEW075 BKN100 66 63     90%     29.88   0    
May 14 18:26   1.75 Light Rain FEW060 BKN070 OVC095 82 58     44%   82 29.92   0    
May 13 11:53 WSW 9 10 Mostly Cloudy SCT044 BKN055 85 66     53%   87 30.01 29.99      
May 13 07:53 5 10 Clear CLR 75 64     69%   75 30.03 30.01      
May 12 03:53 S 6 10 Clear CLR 72 58     61%   72 29.93 29.92      
Jun 12 07:53 S 7 10 Clear CLR 78 66     67%   79 30.04 30.02      
Jun 10 20:53 S 3 10 Clear CLR 78 57     48%   78 29.9 29.88      
Jun 10 15:53 S 13 10 Clear CLR 88 54     31%   86 29.9 29.88      
Jun 09 15:53 WSW 8 10 Clear   85 50     30%   83 29.88 29.88      
Jun 09 14:53 W 8 10 Clear CLR 86 49     28%   83 29.9 29.89      
Jun 09 12:53 W 9 10 Clear CLR 83 49     31%   81 29.93 29.92      
Jun 09 03:53 Calm 10 Clear CLR 56 51     84%     29.9 29.89      
Jun 08 15:53 N 6 10 Clear CLR 82 46     28%   80 29.94 29.93      
Jun 07 15:53 ENE 10 10 Clear CLR 81 44     27%   80 30.02 30.01      
Jun 06 02:53 NNE 10 10 Clear CLR 68 55     63%     29.89 29.88